TimeCDT,TemperatureF,Dew PointF,Humidity,Sea Level PressureIn,VisibilityMPH,Wind Direction,Wind SpeedMPH,Gust SpeedMPH,PrecipitationIn,Events,Conditions,WindDirDegrees,DateUTC
12:13 AM,59.0,55.4,88,30.19,10.0,Calm,Calm,-,N/A,,Clear,0,2013-08-17 05:13:00
12:32 AM,59.0,55.4,88,30.19,10.0,Calm,Calm,-,N/A,,Clear,0,2013-08-17 05:32:00
12:52 AM,57.2,53.6,88,30.19,10.0,Calm,Calm,-,N/A,,Clear,0,2013-08-17 05:52:00
1:13 AM,59.0,53.6,82,30.19,10.0,Calm,Calm,-,N/A,,Clear,0,2013-08-17 06:13:00
1:32 AM,59.0,53.6,82,30.19,10.0,SSE,3.5,-,N/A,,Clear,150,2013-08-17 06:32:00
1:52 AM,57.2,53.6,88,30.19,10.0,Calm,Calm,-,N/A,,Clear,0,2013-08-17 06:52:00
2:13 AM,57.2,53.6,88,30.19,10.0,Calm,Calm,-,N/A,,Clear,0,2013-08-17 07:13:00
2:32 AM,55.4,51.8,88,30.19,10.0,Calm,Calm,-,N/A,,Clear,0,2013-08-17 07:32:00
2:52 AM,55.4,53.6,94,30.19,10.0,Calm,Calm,-,N/A,,Clear,0,2013-08-17 07:52:00
3:13 AM,53.6,51.8,94,30.19,10.0,Calm,Calm,-,N/A,,Clear,0,2013-08-17 08:13:00
3:32 AM,53.6,51.8,94,30.19,10.0,Calm,Calm,-,N/A,,Clear,0,2013-08-17 08:32:00
3:52 AM,53.6,51.8,94,30.19,10.0,Calm,Calm,-,N/A,,Clear,0,2013-08-17 08:52:00
4:13 AM,55.4,53.6,94,30.20,10.0,SSE,3.5,-,N/A,,Clear,160,2013-08-17 09:13:00
4:32 AM,55.4,51.8,88,30.20,10.0,Calm,Calm,-,N/A,,Clear,0,2013-08-17 09:32:00
4:52 AM,53.6,51.8,94,30.20,10.0,Calm,Calm,-,N/A,,Clear,0,2013-08-17 09:52:00
5:13 AM,53.6,51.8,94,30.20,10.0,Calm,Calm,-,N/A,,Clear,0,2013-08-17 10:13:00
5:32 AM,55.4,51.8,88,30.20,10.0,Calm,Calm,-,N/A,,Clear,0,2013-08-17 10:32:00
5:52 AM,53.6,51.8,94,30.20,10.0,Calm,Calm,-,N/A,,Clear,0,2013-08-17 10:52:00
6:13 AM,55.4,51.8,88,30.20,10.0,SSE,3.5,-,N/A,,Clear,160,2013-08-17 11:13:00
6:33 AM,55.4,51.8,88,30.20,10.0,Calm,Calm,-,N/A,,Clear,0,2013-08-17 11:33:00
6:52 AM,55.4,51.8,88,30.20,10.0,South,3.5,-,N/A,,Clear,170,2013-08-17 11:52:00
7:13 AM,57.2,53.6,88,30.20,10.0,SSE,4.6,-,N/A,,Clear,160,2013-08-17 12:13:00
7:33 AM,59.0,53.6,82,30.20,10.0,SSE,4.6,-,N/A,,Clear,160,2013-08-17 12:33:00
7:52 AM,60.8,53.6,77,30.20,10.0,SSE,5.8,-,N/A,,Clear,160,2013-08-17 12:52:00
8:13 AM,62.6,55.4,77,30.20,10.0,South,5.8,-,N/A,,Clear,170,2013-08-17 13:13:00
8:33 AM,64.4,55.4,73,30.20,10.0,South,6.9,-,N/A,,Clear,170,2013-08-17 13:33:00
8:52 AM,64.4,55.4,73,30.20,10.0,South,6.9,-,N/A,,Clear,170,2013-08-17 13:52:00
9:13 AM,68.0,55.4,64,30.20,10.0,SSE,8.1,-,N/A,,Clear,160,2013-08-17 14:13:00
9:33 AM,69.8,55.4,60,30.20,10.0,South,8.1,-,N/A,,Clear,170,2013-08-17 14:33:00
9:52 AM,71.6,55.4,57,30.20,10.0,SSE,10.4,-,N/A,,Clear,160,2013-08-17 14:52:00
10:12 AM,71.6,53.6,53,30.20,10.0,South,12.7,19.6,N/A,,Clear,170,2013-08-17 15:12:00
10:33 AM,73.4,53.6,50,30.20,10.0,South,11.5,16.1,N/A,,Clear,180,2013-08-17 15:33:00
10:52 AM,73.4,53.6,50,30.19,10.0,South,11.5,20.7,N/A,,Clear,180,2013-08-17 15:52:00
11:12 AM,75.2,55.4,50,30.19,10.0,SSW,15.0,18.4,N/A,,Clear,200,2013-08-17 16:12:00
11:33 AM,73.4,53.6,50,30.19,10.0,South,13.8,-,N/A,,Clear,170,2013-08-17 16:33:00
11:52 AM,75.2,55.4,50,30.19,10.0,SSW,13.8,-,N/A,,Clear,200,2013-08-17 16:52:00
12:12 PM,75.2,55.4,50,30.18,10.0,South,13.8,18.4,N/A,,Clear,170,2013-08-17 17:12:00
12:32 PM,75.2,55.4,50,30.18,10.0,South,13.8,-,N/A,,Clear,180,2013-08-17 17:32:00
12:52 PM,75.2,55.4,50,30.17,10.0,South,10.4,18.4,N/A,,Clear,190,2013-08-17 17:52:00
1:12 PM,75.2,55.4,50,30.17,10.0,South,11.5,18.4,N/A,,Scattered Clouds,190,2013-08-17 18:12:00
1:32 PM,77.0,55.4,47,30.17,10.0,South,11.5,16.1,N/A,,Scattered Clouds,170,2013-08-17 18:32:00
1:53 PM,78.8,57.2,47,30.16,10.0,South,10.4,19.6,N/A,,Clear,180,2013-08-17 18:53:00
2:12 PM,78.8,55.4,44,30.16,10.0,SSW,16.1,20.7,N/A,,Scattered Clouds,210,2013-08-17 19:12:00
2:32 PM,78.8,55.4,44,30.16,10.0,SSE,9.2,-,N/A,,Scattered Clouds,160,2013-08-17 19:32:00
2:53 PM,78.8,55.4,44,30.15,10.0,SSE,11.5,16.1,N/A,,Scattered Clouds,160,2013-08-17 19:53:00
3:12 PM,77.0,55.4,47,30.15,10.0,South,10.4,17.3,N/A,,Mostly Cloudy,170,2013-08-17 20:12:00
3:32 PM,75.2,55.4,50,30.15,10.0,SSE,8.1,-,N/A,,Mostly Cloudy,160,2013-08-17 20:32:00
3:53 PM,78.8,57.2,47,30.14,10.0,South,10.4,-,N/A,,Scattered Clouds,180,2013-08-17 20:53:00
4:12 PM,78.8,55.4,44,30.14,10.0,South,12.7,-,N/A,,Clear,170,2013-08-17 21:12:00
4:32 PM,77.0,55.4,47,30.14,10.0,SSE,9.2,16.1,N/A,,Scattered Clouds,160,2013-08-17 21:32:00
4:53 PM,78.8,55.4,44,30.14,10.0,South,10.4,-,N/A,,Mostly Cloudy,170,2013-08-17 21:53:00
5:12 PM,78.8,55.4,44,30.14,10.0,South,11.5,-,N/A,,Scattered Clouds,180,2013-08-17 22:12:00
5:32 PM,77.0,55.4,47,30.14,10.0,SSE,10.4,-,N/A,,Scattered Clouds,150,2013-08-17 22:32:00
5:53 PM,77.0,55.4,47,30.14,10.0,SSE,10.4,16.1,N/A,,Scattered Clouds,160,2013-08-17 22:53:00
6:12 PM,75.2,55.4,50,30.13,10.0,South,9.2,-,N/A,,Clear,170,2013-08-17 23:12:00
6:32 PM,75.2,55.4,50,30.13,10.0,South,6.9,-,N/A,,Clear,170,2013-08-17 23:32:00
6:53 PM,75.2,57.2,53,30.12,10.0,SSE,3.5,-,N/A,,Clear,160,2013-08-17 23:53:00
7:12 PM,75.2,55.4,50,30.12,10.0,South,5.8,-,N/A,,Clear,170,2013-08-18 00:12:00
7:32 PM,73.4,57.2,57,30.12,10.0,South,4.6,-,N/A,,Clear,170,2013-08-18 00:32:00
7:53 PM,73.4,57.2,57,30.12,10.0,SSE,3.5,-,N/A,,Clear,160,2013-08-18 00:53:00
8:12 PM,71.6,57.2,60,30.12,10.0,SSE,4.6,-,N/A,,Clear,160,2013-08-18 01:12:00
8:32 PM,69.8,57.2,64,30.13,10.0,Calm,Calm,-,N/A,,Scattered Clouds,0,2013-08-18 01:32:00
8:53 PM,68.0,57.2,68,30.13,10.0,SSE,3.5,-,N/A,,Clear,160,2013-08-18 01:53:00
9:12 PM,66.2,57.2,73,30.13,10.0,SSE,4.6,-,N/A,,Clear,150,2013-08-18 02:12:00
9:32 PM,66.2,57.2,73,30.14,10.0,SSE,5.8,-,N/A,,Clear,150,2013-08-18 02:32:00
9:53 PM,64.4,57.2,77,30.14,10.0,SSE,3.5,-,N/A,,Clear,160,2013-08-18 02:53:00
10:12 PM,64.4,57.2,77,30.14,10.0,SE,4.6,-,N/A,,Clear,140,2013-08-18 03:12:00
10:32 PM,64.4,57.2,77,30.14,10.0,SSE,4.6,-,N/A,,Clear,160,2013-08-18 03:32:00
10:53 PM,64.4,57.2,77,30.14,10.0,SSE,6.9,-,N/A,,Clear,160,2013-08-18 03:53:00
11:12 PM,62.6,55.4,77,30.14,10.0,SSE,4.6,-,N/A,,Clear,160,2013-08-18 04:12:00
11:32 PM,62.6,55.4,77,30.13,10.0,SSE,3.5,-,N/A,,Clear,160,2013-08-18 04:32:00
11:53 PM,62.6,55.4,77,30.14,10.0,Calm,Calm,-,N/A,,Clear,0,2013-08-18 04:53:00